星链-11131 [DTC] (STARLINK-11131 [DTC] )

导读

STARLINK-11131是美国SpaceX星链卫星互联网项目的一颗卫星,于2024年5月14日发射升空,隶属于SpaceX公司打造的近地轨道卫星星座。作为星链扩容计划的组成部分,它主要服务于全球范围的高速卫星互联网接入,将进一步提升星链星座覆盖能力与网络容量,支撑民用、商用及特殊领域的通信服务。

Basic Information
目录编号:
59756
目录名称:
STARLINK-11131
国际标识:
2024-091D
轨道中心:
EARTH
卫星名称:
星链-11131 [DTC]
卫星全名:
星链-11131 [DTC] (STARLINK-11131 [DTC] )
卫星状态:
在轨 (已飞行850 天)
发射日期:
2024-05-14 UTC
国别 :
美国 (US)
星等 :
--
This satellite is enrolled in the Space Conjunction Data Service (SCDS) and the current flight risk assessment level is: No High Risk
Orbit Information
数据来源 国际轨道数据 AOE轨道数据
星历时间 2026-09-10T22:25:54+0800
19小时前
查看轨道信息
2026-09-10T07:00:00+0800
1天前
查看轨道信息
半长轴 6737.877km 6737.86km
偏心率 0.00006 0.0001106
轨道倾角 53.159° 53.158°
近地点辐角 108.007° 62.688°
升交点赤经 14.879° 18.051°
平近点角 252.101° 261.846°
近地点 359.335km 358.977km
远地点 360.145km 360.469km
周期 91.737分钟 91.737分钟
每日圈数 15.697057 15.697114
Detailed Information
固有亮度:
5
最大亮度:
0.6
卫星平台:
Starlink v2.0 mini
覆盖范围:
全球
运营商:
太空探索技术公司
运营商所在国:
美国
制造商(研发单位):
太空探索技术公司
制造商所在国:
美国
使用方式:
暂无
Satellite Introduction
星链(Starlink)计划是由太空探索技术公司(SpaceX)提出的一个巨型低轨卫星互联网星座项目,计划在2019年至2024年间在太空搭建由约1.2万颗卫星组成的“星链”网络,其中1584颗将部署在地球上空550千米处的近地轨道,并从2020年开始工作。该卫星仍在工作。
2D Orbit Map
3D Orbit Map
Orbit Altitude Analysis Chart
Orbit Inclination Analysis Chart
Orbit Comprehensive Analysis Chart
View Comprehensive Chart
Miss Distance Evolution Trend with All Objects
Collision Probability Evolution Trend with All Objects